Вернуться в каталог

QIANFAN-160

АктивенСвязьPO
NORAD 69119·PAYLOAD·🇨🇳 China

Запущен May 17, 2026 с Wenchang Space Launch Site

Loading…

Ближайшие Пролёты (ближайшие 24 часа)

TLE

СвежийSource: Space-Track

Эпоха: Sep 14, 2026, 14:11 UTC

1 69119U 26108R   26257.59111160  .00000094  00000-0  12755-3 0  9995
2 69119  89.0194  13.1036 0002358 107.6077 252.5332 13.51022821 16520

Отслеживайте QIANFAN-160 в реальном времени с AllMySat

Download on the App Store